�N����,����,�~����,�C��,���x,�C��,����,���ϕ���,�ő�u�ԕ���,�ő厞����,���˗�,�I�_���x,�n�����x,�ő啗���N��,DTYPE
"21/06/20","00:10",0.0,19.0,95.7,995.6,316.9,1.0,2.0,343.7,0.00,18.3,22.1,"00:04:24",1
"21/06/20","00:20",0.0,18.8,95.7,995.6,290.1,0.8,1.6,327.2,0.00,18.1,22.0,"00:14:40",1
"21/06/20","00:30",0.0,18.7,95.8,995.6,295.2,1.0,1.4,330.2,0.00,18.1,21.7,"00:25:52",1
"21/06/20","00:40",0.0,18.6,96.0,995.6,289.5,1.1,1.6,321.3,0.00,18.0,22.0,"00:31:20",1
"21/06/20","00:50",0.0,18.8,96.0,995.8,331.0,1.3,2.5,337.2,0.00,18.2,22.0,"00:42:48",1
"21/06/20","01:00",0.0,18.6,96.0,995.8,321.9,1.1,1.7,325.1,0.00,18.0,21.7,"00:59:28",1
"21/06/20","01:10",0.0,18.5,96.1,996.0,328.4,1.0,2.1,327.8,0.00,17.9,22.1,"01:09:52",1
"21/06/20","01:20",0.0,18.5,96.2,995.6,295.2,0.8,2.4,332.1,0.00,17.9,21.6,"01:10:40",1
"21/06/20","01:30",0.0,18.4,96.2,995.8,319.0,0.7,1.8,313.3,0.00,17.8,21.8,"01:25:28",1
"21/06/20","01:40",0.0,18.4,96.3,995.3,309.0,1.3,2.1,312.7,0.00,17.8,21.8,"01:37:20",1
"21/06/20","01:50",0.0,18.3,96.3,995.6,311.4,1.3,2.5,328.0,0.00,17.7,21.8,"01:43:36",1
"21/06/20","02:00",0.0,18.2,96.3,995.6,313.3,0.8,1.6,338.1,0.00,17.6,21.8,"01:51:44",1
"21/06/20","02:10",0.0,18.1,96.4,995.6,312.6,0.8,1.6,324.5,0.00,17.6,21.7,"02:05:04",1
"21/06/20","02:20",0.0,17.9,96.5,995.8,324.4,1.3,2.1,339.1,0.00,17.4,21.8,"02:19:04",1
"21/06/20","02:30",0.0,17.9,96.6,995.6,324.4,1.5,2.4,336.3,0.00,17.4,21.8,"02:20:40",1
"21/06/20","02:40",0.0,18.0,96.7,995.6,335.2,1.5,2.9,337.6,0.00,17.5,21.6,"02:39:04",1
"21/06/20","02:50",0.0,18.1,96.7,995.6,330.4,1.7,3.7,339.5,0.00,17.6,21.6,"02:46:40",1
"21/06/20","03:00",0.0,18.2,96.7,995.6,328.4,1.6,3.1,326.5,0.00,17.7,21.6,"02:59:20",1
"21/06/20","03:10",0.0,18.2,96.7,995.8,329.9,1.8,2.7,324.0,0.00,17.7,21.3,"03:08:56",1
"21/06/20","03:20",0.0,18.2,96.8,995.8,330.6,1.7,2.7,329.4,0.00,17.7,21.5,"03:11:04",1
"21/06/20","03:30",0.0,18.1,96.8,996.0,321.5,1.6,2.5,328.7,0.00,17.6,21.4,"03:23:20",1
"21/06/20","03:40",0.0,18.2,96.8,996.3,331.9,1.6,2.9,344.4,0.00,17.7,21.4,"03:32:16",1
"21/06/20","03:50",0.0,18.1,96.9,996.3,342.5,1.1,1.7,328.6,0.00,17.6,21.5,"03:43:20",1
"21/06/20","04:00",0.0,18.1,96.9,996.3,337.9,1.2,1.8,322.2,0.00,17.6,21.4,"03:52:24",1
"21/06/20","04:10",0.0,18.1,96.9,996.5,348.5,0.8,1.6,354.9,0.00,17.6,21.4,"04:00:40",1
"21/06/20","04:20",0.0,18.1,97.0,996.5,329.8,1.3,2.7,342.5,0.00,17.7,21.5,"04:16:32",1
"21/06/20","04:30",0.0,18.0,97.0,996.5,313.2,1.3,2.8,333.4,0.00,17.6,21.3,"04:28:48",1
"21/06/20","04:40",0.0,18.0,97.0,996.5,323.0,1.3,1.8,313.3,0.00,17.6,21.5,"04:32:16",1
"21/06/20","04:50",0.0,18.0,97.0,996.5,316.9,1.5,2.1,304.8,0.00,17.6,21.4,"04:43:20",1
"21/06/20","05:00",0.0,18.0,97.0,996.5,331.3,1.1,1.9,334.6,0.00,17.6,21.3,"04:50:08",1
"21/06/20","05:10",0.0,17.9,97.0,996.7,338.9,0.7,1.7,314.6,0.00,17.5,21.5,"05:09:44",1
"21/06/20","05:20",0.0,17.8,97.1,997.0,309.0,0.7,1.3,317.8,0.00,17.4,21.5,"05:18:40",1
"21/06/20","05:30",0.0,17.8,97.2,997.4,303.7,1.1,1.6,287.6,0.00,17.4,21.3,"05:26:40",1
"21/06/20","05:40",0.0,18.0,97.2,997.0,305.3,1.5,2.2,312.5,0.00,17.6,21.2,"05:39:12",1
"21/06/20","05:50",0.0,18.3,97.2,997.0,307.4,1.6,3.3,325.4,0.00,17.9,21.2,"05:47:20",1
"21/06/20","06:00",0.0,18.3,97.1,997.0,330.3,1.7,2.7,332.4,0.01,17.9,21.3,"05:54:16",1
"21/06/20","06:10",0.0,18.4,97.1,997.0,346.8,0.7,1.9,333.9,0.02,18.0,21.2,"06:00:32",1
"21/06/20","06:20",0.0,18.5,97.1,997.4,336.7,1.0,2.5,330.3,0.02,18.1,21.1,"06:18:00",1
"21/06/20","06:30",0.0,18.9,97.1,997.2,332.1,1.5,3.2,342.6,0.07,18.5,21.3,"06:29:36",1
"21/06/20","06:40",0.0,19.5,96.9,997.0,328.6,1.0,2.1,356.2,0.06,19.0,21.2,"06:31:12",1
"21/06/20","06:50",0.0,19.5,96.8,997.0,348.1,0.8,1.9,342.0,0.05,19.0,21.3,"06:40:16",1
"21/06/20","07:00",0.0,19.4,96.6,997.0,325.7,1.3,2.4,328.4,0.08,18.9,21.2,"06:56:24",1
"21/06/20","07:10",0.0,19.7,96.5,997.0,304.1,1.0,1.9,338.8,0.08,19.2,21.1,"07:06:16",1
"21/06/20","07:20",0.0,20.1,96.3,997.0,277.9,1.0,2.0,255.4,0.11,19.5,21.2,"07:18:08",1
"21/06/20","07:30",0.0,20.0,95.8,996.7,295.6,1.0,2.9,258.5,0.11,19.3,21.1,"07:29:44",1
"21/06/20","07:40",0.0,20.3,95.6,997.2,305.1,1.2,2.0,247.9,0.16,19.6,21.1,"07:32:00",1
"21/06/20","07:50",0.0,20.6,95.2,997.0,304.9,1.0,2.4,296.8,0.17,19.8,21.1,"07:44:48",1
"21/06/20","08:00",0.0,21.0,94.1,997.2,287.5,1.0,2.0,266.1,0.19,20.1,21.3,"07:50:08",1
"21/06/20","08:10",0.0,21.0,93.3,997.7,329.8,1.2,3.3,343.5,0.17,19.9,21.2,"08:08:32",1
"21/06/20","08:20",0.0,21.4,92.0,997.9,303.5,1.2,3.4,325.0,0.19,20.1,21.4,"08:16:08",1
"21/06/20","08:30",0.0,21.5,89.9,997.9,291.5,1.2,2.8,306.1,0.20,19.8,21.1,"08:24:40",1
"21/06/20","08:40",0.0,22.1,88.0,997.9,326.3,1.7,3.3,255.3,0.25,20.1,21.5,"08:33:20",1
"21/06/20","08:50",0.0,22.5,85.4,997.7,5.7,1.2,3.1,342.8,0.23,20.0,21.2,"08:48:32",1
"21/06/20","09:00",0.0,23.4,80.4,997.7,330.6,1.5,3.1,336.3,0.33,19.9,21.3,"08:56:08",1
"21/06/20","09:10",0.0,23.3,75.7,997.4,3.9,1.7,3.6,347.5,0.24,18.8,21.5,"09:01:12",1
"21/06/20","09:20",0.0,23.7,74.8,997.2,331.8,1.5,3.4,347.0,0.26,19.0,21.7,"09:13:44",1
"21/06/20","09:30",0.0,24.0,72.4,997.0,356.5,1.2,3.2,36.7,0.26,18.8,21.6,"09:22:00",1
"21/06/20","09:40",0.0,24.4,71.0,997.0,6.8,1.2,4.2,338.1,0.31,18.8,21.7,"09:39:36",1
"21/06/20","09:50",0.0,24.4,69.3,996.7,337.0,2.3,5.1,321.1,0.44,18.5,21.7,"09:48:08",1
"21/06/20","10:00",0.0,25.2,68.8,996.7,331.4,2.1,4.7,340.9,0.60,19.1,21.9,"09:59:04",1
"21/06/20","10:10",0.0,25.1,66.3,996.5,315.2,1.7,4.8,336.4,0.43,18.4,22.0,"10:04:32",1
"21/06/20","10:20",0.0,25.5,66.3,996.3,346.6,1.6,5.2,311.0,0.51,18.8,22.0,"10:13:44",1
"21/06/20","10:30",0.0,25.6,63.3,996.3,349.1,1.6,3.6,339.5,0.45,18.2,22.1,"10:28:16",1
"21/06/20","10:40",0.0,26.3,62.4,995.8,349.3,1.7,3.6,356.4,0.64,18.6,22.0,"10:39:36",1
"21/06/20","10:50",0.0,25.4,62.1,995.6,19.3,2.0,4.8,351.5,0.42,17.7,22.1,"10:40:02",1
"21/06/20","11:00",0.0,25.8,62.6,995.8,0.1,2.3,5.7,313.8,0.60,18.2,22.3,"10:50:02",1
"21/06/20","11:10",0.0,26.1,62.7,995.6,353.6,2.3,5.6,334.1,0.67,18.5,22.2,"11:00:08",1
"21/06/20","11:20",0.0,26.0,60.5,995.8,358.3,2.5,5.7,24.2,0.60,17.8,22.4,"11:15:20",1
"21/06/20","11:30",0.0,25.7,61.4,995.6,351.8,2.7,6.2,336.7,0.51,17.8,22.5,"11:29:44",1
"21/06/20","11:40",0.0,26.0,60.2,995.3,358.5,2.6,5.6,325.6,0.61,17.7,22.8,"11:30:24",1
"21/06/20","11:50",0.0,27.0,59.2,995.1,13.0,1.7,4.5,340.3,0.65,18.4,22.8,"11:40:08",1
"21/06/20","12:00",0.0,27.1,57.9,995.8,12.8,1.8,3.9,315.5,0.57,18.1,22.9,"11:57:52",1
"21/06/20","12:10",0.0,26.6,58.2,995.8,351.5,2.6,7.5,338.4,0.66,17.8,22.8,"12:04:24",1
"21/06/20","12:20",0.0,26.7,58.3,995.8,3.9,2.6,6.0,340.8,0.59,17.9,23.0,"12:14:16",1
"21/06/20","12:30",0.0,26.9,56.6,995.3,359.0,2.3,4.5,351.2,0.57,17.6,22.8,"12:21:12",1
"21/06/20","12:40",0.0,26.5,58.1,995.1,359.9,2.7,8.2,345.3,0.44,17.6,23.0,"12:37:52",1
"21/06/20","12:50",0.0,26.7,58.4,995.3,343.0,3.0,5.8,347.1,0.52,17.9,23.1,"12:40:24",1
"21/06/20","13:00",0.0,26.8,57.7,995.1,339.6,2.5,4.3,338.5,0.60,17.8,23.1,"12:52:24",1
"21/06/20","13:10",0.0,27.3,56.6,995.1,47.2,1.3,3.9,27.0,0.38,18.0,23.2,"13:03:12",1
"21/06/20","13:20",0.0,27.3,56.4,995.1,356.9,1.8,4.2,328.4,0.47,17.9,23.4,"13:16:48",1
"21/06/20","13:30",0.0,27.7,55.0,995.6,344.4,1.6,4.8,355.2,0.58,17.9,23.2,"13:29:20",1
"21/06/20","13:40",0.0,27.4,54.1,995.1,340.3,1.8,5.2,340.3,0.36,17.3,23.2,"13:31:28",1
"21/06/20","13:50",0.0,27.4,56.7,995.3,347.9,2.5,4.9,344.5,0.45,18.1,23.5,"13:42:56",1
"21/06/20","14:00",0.2,27.6,55.5,995.1,348.9,2.8,5.9,346.7,0.52,17.9,23.3,"13:57:36",1
"21/06/20","14:10",0.0,27.9,51.4,995.1,12.4,2.5,5.2,353.0,0.57,17.0,23.5,"14:02:00",1
"21/06/20","14:20",0.0,27.6,50.8,995.3,5.5,2.6,4.9,343.9,0.43,16.5,23.4,"14:19:04",1
"21/06/20","14:30",0.0,27.6,52.9,995.1,342.4,3.0,6.0,344.0,0.51,17.2,23.4,"14:26:24",1
"21/06/20","14:40",0.0,27.2,53.4,995.1,356.1,2.7,5.2,8.3,0.35,17.0,23.6,"14:33:28",1
"21/06/20","14:50",0.0,26.6,54.9,994.6,345.9,3.0,6.3,330.2,0.28,16.8,23.5,"14:45:20",1
"21/06/20","15:00",0.0,26.0,53.5,995.1,348.4,2.7,7.7,337.0,0.23,15.9,23.5,"14:50:40",1
"21/06/20","15:10",0.0,26.6,52.6,995.1,349.9,2.6,7.0,324.5,0.34,16.2,23.6,"15:01:20",1
"21/06/20","15:20",0.0,26.3,53.3,995.1,344.6,2.3,5.4,332.4,0.28,16.1,23.4,"15:17:12",1
"21/06/20","15:30",0.0,26.0,55.2,995.1,344.3,2.5,4.8,341.1,0.24,16.4,23.5,"15:22:56",1
"21/06/20","15:40",0.0,25.6,54.6,995.8,333.9,3.5,6.0,319.4,0.21,15.8,23.4,"15:32:08",1
"21/06/20","15:50",0.0,25.7,54.9,995.6,353.1,2.5,5.6,347.5,0.21,16.0,23.7,"15:48:48",1
"21/06/20","16:00",0.0,25.6,54.1,995.6,358.7,2.3,4.1,354.3,0.17,15.7,23.8,"15:55:28",1
"21/06/20","16:10",0.0,25.4,56.1,996.3,349.7,2.3,5.4,337.3,0.16,16.1,23.7,"16:00:16",1
"21/06/20","16:20",0.0,25.5,56.4,995.6,355.0,2.2,4.0,21.0,0.24,16.2,23.6,"16:14:16",1
"21/06/20","16:30",0.0,25.8,54.6,995.6,343.9,2.8,5.4,339.7,0.29,16.0,23.8,"16:26:56",1
"21/06/20","16:40",0.0,25.0,56.5,995.8,345.3,2.8,5.4,345.2,0.12,15.8,23.6,"16:36:24",1
"21/06/20","16:50",0.0,24.7,57.5,996.0,343.4,2.6,5.4,333.4,0.11,15.8,23.7,"16:46:00",1
"21/06/20","17:00",0.0,24.6,58.2,996.0,346.8,1.6,3.7,347.2,0.10,15.9,23.7,"16:56:32",1
"21/06/20","17:10",0.0,24.3,58.2,996.3,338.0,2.1,3.9,330.2,0.08,15.6,23.6,"17:03:20",1
"21/06/20","17:20",0.0,24.1,57.8,996.0,329.7,2.1,4.2,337.9,0.07,15.3,23.6,"17:10:40",1
"21/06/20","17:30",0.0,24.1,59.3,996.5,333.8,1.8,3.1,328.1,0.07,15.7,23.6,"17:20:16",1
"21/06/20","17:40",0.0,24.0,60.0,996.3,344.6,1.7,4.3,331.8,0.07,15.8,23.6,"17:31:28",1
"21/06/20","17:50",0.0,23.8,60.7,996.5,341.5,2.0,4.5,345.3,0.06,15.8,23.6,"17:46:00",1
"21/06/20","18:00",0.0,23.6,62.5,996.7,325.1,1.6,3.5,342.4,0.04,16.1,23.7,"17:56:08",1
"21/06/20","18:10",0.0,23.2,63.9,996.7,334.7,2.0,5.4,342.0,0.02,16.0,23.5,"18:09:56",1
"21/06/20","18:20",0.0,23.1,65.6,997.0,339.1,2.1,3.5,344.2,0.01,16.4,23.5,"18:16:16",1
"21/06/20","18:30",0.0,22.9,66.5,997.2,334.6,1.8,3.3,330.4,0.01,16.4,23.3,"18:26:32",1
"21/06/20","18:40",0.0,22.7,67.0,997.7,328.4,1.2,2.4,331.8,0.01,16.3,23.5,"18:33:36",1
"21/06/20","18:50",0.0,22.7,67.7,997.7,322.0,0.8,2.4,346.7,0.01,16.5,23.5,"18:46:56",1
"21/06/20","19:00",0.0,22.5,68.2,997.7,328.7,1.1,2.2,312.4,0.01,16.4,23.3,"18:54:48",1
"21/06/20","19:10",0.0,22.3,69.1,997.9,342.0,1.3,3.3,356.8,0.00,16.4,23.3,"19:06:24",1
"21/06/20","19:20",0.0,22.0,69.8,997.9,356.3,1.2,3.3,8.7,0.00,16.3,23.4,"19:18:08",1
"21/06/20","19:30",0.0,21.9,70.7,997.9,3.0,1.1,2.0,7.7,0.00,16.4,23.2,"19:20:40",1
"21/06/20","19:40",0.0,21.7,72.2,998.2,1.0,1.2,2.1,19.7,0.00,16.5,23.2,"19:32:56",1
"21/06/20","19:50",0.0,21.2,74.6,997.9,356.1,1.1,2.4,9.8,0.00,16.6,23.2,"19:43:12",1
"21/06/20","20:00",0.0,20.8,76.4,998.2,358.2,1.0,1.9,26.2,0.00,16.5,23.3,"19:58:00",1
"21/06/20","20:10",0.0,20.5,77.3,998.4,322.1,1.1,2.5,339.7,0.00,16.4,23.2,"20:06:24",1
"21/06/20","20:20",0.0,20.2,78.1,998.6,293.1,0.8,1.7,315.0,0.00,16.3,23.0,"20:18:32",1
"21/06/20","20:30",0.0,19.9,78.9,998.9,322.0,1.0,1.4,323.5,0.00,16.2,23.3,"20:29:36",1
"21/06/20","20:40",0.0,19.7,79.6,998.6,329.5,1.2,1.8,331.7,0.00,16.1,23.2,"20:36:56",1
"21/06/20","20:50",0.0,19.8,79.9,998.9,319.8,1.3,2.2,316.2,0.00,16.3,23.0,"20:44:32",1
"21/06/20","21:00",0.0,19.8,79.8,999.1,309.5,1.3,2.0,343.8,0.00,16.3,22.9,"20:51:36",1
"21/06/20","21:10",0.0,19.6,80.2,999.1,326.3,1.1,1.7,338.8,0.00,16.1,23.0,"21:09:28",1
"21/06/20","21:20",0.0,19.5,81.0,999.6,321.7,1.3,1.9,324.8,0.00,16.2,22.9,"21:17:20",1
"21/06/20","21:30",0.0,19.1,82.0,999.8,312.5,1.3,2.0,329.1,0.00,16.0,23.0,"21:27:44",1
"21/06/20","21:40",0.0,18.8,83.0,999.6,298.2,1.2,1.9,310.5,0.00,15.9,22.9,"21:30:24",1
"21/06/20","21:50",0.0,18.7,83.5,999.3,294.8,1.2,1.7,303.1,0.00,15.9,22.8,"21:48:00",1
"21/06/20","22:00",0.0,18.5,84.1,999.6,310.7,1.6,2.5,307.9,0.00,15.8,22.9,"21:59:20",1
"21/06/20","22:10",0.0,18.3,84.6,999.3,301.0,1.3,2.1,322.7,0.00,15.7,22.6,"22:01:04",1
"21/06/20","22:20",0.0,18.2,85.1,999.6,296.9,1.2,1.8,308.0,0.00,15.7,22.4,"22:12:48",1
"21/06/20","22:30",0.0,18.0,85.5,999.3,320.9,1.5,2.5,326.2,0.00,15.6,22.7,"22:29:28",1
"21/06/20","22:40",0.0,17.9,85.8,999.6,309.3,1.5,2.9,323.1,0.00,15.5,22.7,"22:35:12",1
"21/06/20","22:50",0.0,18.0,85.9,999.8,325.9,2.3,4.1,325.7,0.00,15.6,22.5,"22:47:36",1
"21/06/20","23:00",0.0,18.4,85.2,999.3,328.3,3.0,3.9,343.6,0.00,15.9,22.3,"22:53:36",1
"21/06/20","23:10",0.0,18.7,84.6,999.3,330.3,2.6,4.0,324.9,0.00,16.1,22.4,"23:07:44",1
"21/06/20","23:20",0.0,18.5,84.5,999.6,335.6,2.2,3.6,333.8,0.00,15.9,22.3,"23:19:52",1
"21/06/20","23:30",0.0,18.2,84.9,999.6,332.9,2.0,2.8,334.0,0.00,15.7,22.4,"23:21:52",1
"21/06/20","23:40",0.0,18.2,85.3,999.3,329.9,2.1,4.3,356.0,0.00,15.7,22.4,"23:34:56",1
"21/06/20","23:50",0.0,18.1,85.5,999.1,336.1,2.0,4.0,352.4,0.00,15.7,22.2,"23:46:16",1
"21/06/20","24:00",0.0,18.1,85.5,999.8,342.1,1.8,4.7,333.9,0.00,15.7,22.2,"23:52:16",1
